{"data":{"norad_id":60458,"epoch":"2026-05-25T02:04:36.230016Z","epoch_age_seconds":66975,"freshness":"FRESH","line1":"1 60458U 24148A   26145.08653044  .00015346  00000+0  44009-3 0  9998","line2":"2 60458  35.0051 286.7010 0004896   5.9739 354.1037 15.35010203 98890","mean_motion":15.35010203,"eccentricity":0.0004896,"inclination_deg":35.0051,"raan_deg":286.701,"arg_perigee_deg":5.9739,"mean_anomaly_deg":354.1037,"bstar":0.00044009,"rev_number":9889,"period_min":93.810451369358,"perigee_km":457.54180141947,"apogee_km":464.23857684307,"semimajor_km":6839.0271891313,"source":"CELESTRAK","updated_at":"2026-05-25T13:38:02.084621Z"}}